| time (UTC) | temp F | wind direction | speed MPH | gust MPH | rain 1hr in | rain 24hr in | rain mn in | humidity % | barometer mb |
| 20260905043205 | 51 | 344 | 0.0 | 2.0 | 0.00 | 0.01 | 0.01 | 99 | 1016.6 |
| 20260905042204 | 50 | 0.0 | 0.0 | 0.00 | 0.01 | 0.01 | 99 | 1016.6 | |
| 20260905041204 | 50 | 0.0 | 0.0 | 0.00 | 0.01 | 0.01 | 98 | 1016.8 | |
| 20260905040204 | 50 | 0.0 | 0.0 | 0.00 | 0.01 | 0.01 | 98 | 1016.8 | |
| 20260905035245 | 50 | 189 | 2.0 | 4.0 | 0.00 | 0.01 | 0.01 | 98 | 1017.0 |
| 20260905034204 | 51 | 193 | 3.0 | 4.0 | 0.00 | 0.01 | 0.01 | 96 | 1016.9 |
| 20260905033205 | 50 | 191 | 1.0 | 3.0 | 0.00 | 0.01 | 0.01 | 96 | 1016.7 |
| 20260905032204 | 50 | 200 | 2.0 | 4.0 | 0.00 | 0.01 | 0.01 | 98 | 1016.5 |
| 20260905031224 | 51 | 201 | 3.0 | 5.0 | 0.00 | 0.01 | 0.01 | 97 | 1016.4 |
| 20260905030205 | 52 | 203 | 2.0 | 5.0 | 0.00 | 0.01 | 0.01 | 94 | 1016.1 |
| 20260905025204 | 53 | 225 | 0.0 | 2.0 | 0.00 | 0.01 | 0.01 | 89 | 1015.9 |
| 20260905024204 | 55 | 0.0 | 0.0 | 0.00 | 0.01 | 0.01 | 78 | 1015.8 | |
| 20260905023204 | 55 | 0.0 | 0.0 | 0.00 | 0.01 | 0.01 | 76 | 1015.9 | |
| 20260905022205 | 56 | 227 | 0.0 | 2.0 | 0.00 | 0.01 | 0.01 | 78 | 1015.9 |
| 20260905021204 | 56 | 269 | 1.0 | 3.0 | 0.00 | 0.01 | 0.01 | 76 | 1015.8 |
| 20260905020204 | 56 | 0.0 | 0.0 | 0.00 | 0.01 | 0.01 | 77 | 1015.7 | |
| 20260905015204 | 56 | 134 | 1.0 | 4.0 | 0.00 | 0.01 | 0.01 | 76 | 1015.5 |
| 20260905014205 | 57 | 143 | 1.0 | 4.0 | 0.00 | 0.01 | 0.01 | 73 | 1015.3 |
| 20260905013205 | 59 | 174 | 1.0 | 7.0 | 0.00 | 0.01 | 0.01 | 68 | 1015.2 |
| 20260905012225 | 62 | 123 | 1.0 | 5.0 | 0.00 | 0.01 | 0.01 | 66 | 1015.0 |
| 20260905011204 | 62 | 334 | 0.0 | 3.0 | 0.00 | 0.01 | 0.01 | 63 | 1015.0 |
| 20260905010204 | 61 | 225 | 0.0 | 2.0 | 0.00 | 0.01 | 0.01 | 67 | 1014.9 |
| 20260905005224 | 59 | 242 | 0.0 | 3.0 | 0.00 | 0.01 | 0.01 | 69 | 1014.9 |
| 20260905004204 | 58 | 194 | 2.0 | 5.0 | 0.00 | 0.01 | 0.01 | 69 | 1014.8 |
| 20260905003205 | 58 | 200 | 1.0 | 3.0 | 0.00 | 0.01 | 0.01 | 70 | 1014.8 |
| 20260905002204 | 57 | 9 | 2.0 | 4.0 | 0.00 | 0.01 | 0.01 | 70 | 1014.7 |
| 20260905001205 | 57 | 6 | 2.0 | 6.0 | 0.00 | 0.01 | 0.01 | 73 | 1014.7 |
| 20260905000204 | 58 | 249 | 0.0 | 3.0 | 0.00 | 0.01 | 0.01 | 72 | 1014.7 |
| 20260904235204 | 57 | 206 | 4.0 | 9.0 | 0.01 | 0.01 | 0.01 | 74 | 1014.8 |
| 20260904234205 | 55 | 188 | 1.0 | 2.0 | 0.01 | 0.01 | 0.01 | 80 | 1014.7 |
| 20260904233204 | 55 | 6 | 1.0 | 3.0 | 0.01 | 0.01 | 0.01 | 82 | 1014.6 |
| 20260904232205 | 54 | 270 | 1.0 | 5.0 | 0.01 | 0.01 | 0.01 | 82 | 1014.5 |
| 20260904231205 | 53 | 226 | 1.0 | 3.0 | 0.01 | 0.01 | 0.01 | 85 | 1014.6 |
| 20260904230205 | 53 | 204 | 5.0 | 9.0 | 0.01 | 0.01 | 0.01 | 81 | 1014.8 |
| 20260904225205 | 56 | 179 | 10.0 | 16.0 | 0.00 | 0.00 | 0.00 | 70 | 1014.7 |
| 20260904224205 | 60 | 161 | 2.0 | 5.0 | 0.00 | 0.00 | 0.00 | 62 | 1013.9 |
| 20260904223205 | 60 | 133 | 2.0 | 5.0 | 0.00 | 0.00 | 0.00 | 61 | 1013.8 |
| 20260904222204 | 61 | 183 | 5.0 | 8.0 | 0.00 | 0.00 | 0.00 | 59 | 1013.7 |
| 20260904221205 | 62 | 136 | 3.0 | 9.0 | 0.00 | 0.00 | 0.00 | 58 | 1013.7 |
| 20260904220207 | 63 | 136 | 3.0 | 9.0 | 0.00 | 0.00 | 0.00 | 59 | 1013.7 |
| 20260904215205 | 62 | 84 | 2.0 | 8.0 | 0.00 | 0.00 | 0.00 | 60 | 1013.9 |
| 20260904214205 | 62 | 114 | 3.0 | 7.0 | 0.00 | 0.00 | 0.00 | 61 | 1013.9 |
| 20260904213205 | 62 | 192 | 4.0 | 10.0 | 0.00 | 0.00 | 0.00 | 62 | 1013.8 |
| 20260904212205 | 61 | 141 | 4.0 | 9.0 | 0.00 | 0.00 | 0.00 | 64 | 1013.9 |
| 20260904211205 | 61 | 117 | 3.0 | 9.0 | 0.00 | 0.00 | 0.00 | 60 | 1013.9 |
| 20260904210205 | 62 | 119 | 2.0 | 9.0 | 0.00 | 0.00 | 0.00 | 60 | 1013.9 |
| 20260904205205 | 59 | 172 | 6.0 | 13.0 | 0.00 | 0.00 | 0.00 | 65 | 1014.1 |
| 20260904204205 | 58 | 153 | 6.0 | 12.0 | 0.00 | 0.00 | 0.00 | 64 | 1014.1 |
| 20260904203205 | 60 | 156 | 5.0 | 10.0 | 0.00 | 0.00 | 0.00 | 61 | 1014.0 |
| 20260904202205 | 60 | 168 | 5.0 | 9.0 | 0.00 | 0.00 | 0.00 | 60 | 1014.1 |
| 20260904201205 | 59 | 160 | 6.0 | 9.0 | 0.00 | 0.00 | 0.00 | 62 | 1014.2 |
| 20260904200205 | 58 | 177 | 7.0 | 11.0 | 0.00 | 0.00 | 0.00 | 64 | 1014.3 |
| 20260904195205 | 58 | 183 | 7.0 | 13.0 | 0.00 | 0.00 | 0.00 | 64 | 1014.4 |
| 20260904194205 | 57 | 158 | 9.0 | 14.0 | 0.00 | 0.00 | 0.00 | 65 | 1014.5 |
| 20260904193205 | 57 | 191 | 8.0 | 12.0 | 0.00 | 0.00 | 0.00 | 66 | 1014.5 |
| 20260904192205 | 57 | 161 | 7.0 | 12.0 | 0.00 | 0.00 | 0.00 | 66 | 1014.5 |
| 20260904191205 | 57 | 197 | 7.0 | 12.0 | 0.00 | 0.00 | 0.00 | 66 | 1014.4 |
| 20260904190205 | 57 | 186 | 9.0 | 13.0 | 0.00 | 0.00 | 0.00 | 65 | 1014.4 |
| 20260904185205 | 57 | 149 | 10.0 | 15.0 | 0.00 | 0.00 | 0.00 | 65 | 1014.4 |
| 20260904184225 | 57 | 175 | 9.0 | 14.0 | 0.00 | 0.00 | 0.00 | 64 | 1014.4 |
| 20260904183205 | 57 | 127 | 10.0 | 15.0 | 0.00 | 0.00 | 0.00 | 64 | 1014.3 |
| 20260904182205 | 57 | 152 | 8.0 | 14.0 | 0.00 | 0.00 | 0.00 | 64 | 1014.2 |
| 20260904181205 | 58 | 168 | 7.0 | 11.0 | 0.00 | 0.00 | 0.00 | 62 | 1014.1 |
| 20260904180205 | 58 | 149 | 6.0 | 10.0 | 0.00 | 0.00 | 0.00 | 64 | 1014.0 |
| 20260904175205 | 57 | 164 | 7.0 | 12.0 | 0.00 | 0.00 | 0.00 | 64 | 1014.0 |
| 20260904174205 | 57 | 149 | 3.0 | 8.0 | 0.00 | 0.00 | 0.00 | 63 | 1013.9 |
| 20260904173205 | 57 | 145 | 6.0 | 9.0 | 0.00 | 0.00 | 0.00 | 64 | 1013.9 |
| 20260904172205 | 56 | 147 | 1.0 | 6.0 | 0.00 | 0.00 | 0.00 | 67 | 1013.9 |
| 20260904171225 | 55 | 149 | 3.0 | 5.0 | 0.00 | 0.00 | 0.00 | 69 | 1014.0 |
| 20260904170205 | 55 | 159 | 5.0 | 10.0 | 0.00 | 0.00 | 0.00 | 68 | 1013.9 |
| 20260904165205 | 55 | 187 | 4.0 | 9.0 | 0.00 | 0.00 | 0.00 | 69 | 1013.8 |
| 20260904164205 | 55 | 161 | 2.0 | 6.0 | 0.00 | 0.00 | 0.00 | 69 | 1013.6 |
| 20260904163205 | 55 | 139 | 2.0 | 5.0 | 0.00 | 0.00 | 0.00 | 70 | 1013.6 |
| 20260904162225 | 53 | 183 | 3.0 | 6.0 | 0.00 | 0.00 | 0.00 | 73 | 1013.5 |
| 20260904161205 | 53 | 165 | 3.0 | 5.0 | 0.00 | 0.00 | 0.00 | 72 | 1013.6 |
| 20260904160225 | 54 | 175 | 3.0 | 9.0 | 0.00 | 0.00 | 0.00 | 70 | 1013.5 |
| 20260904155205 | 52 | 162 | 4.0 | 8.0 | 0.00 | 0.00 | 0.00 | 73 | 1013.6 |
| 20260904154225 | 52 | 192 | 3.0 | 6.0 | 0.00 | 0.00 | 0.00 | 75 | 1013.6 |
| 20260904153206 | 51 | 177 | 3.0 | 7.0 | 0.00 | 0.00 | 0.00 | 77 | 1013.7 |
| 20260904152205 | 50 | 197 | 5.0 | 8.0 | 0.00 | 0.00 | 0.00 | 79 | 1013.6 |
| 20260904151205 | 51 | 204 | 5.0 | 9.0 | 0.00 | 0.00 | 0.00 | 77 | 1013.4 |
| 20260904150205 | 49 | 183 | 5.0 | 7.0 | 0.00 | 0.00 | 0.00 | 80 | 1013.3 |
| 20260904145206 | 48 | 186 | 3.0 | 6.0 | 0.00 | 0.00 | 0.00 | 82 | 1013.2 |
| 20260904144205 | 48 | 203 | 3.0 | 6.0 | 0.00 | 0.00 | 0.00 | 83 | 1013.1 |
| 20260904143205 | 47 | 166 | 2.0 | 3.0 | 0.00 | 0.00 | 0.00 | 86 | 1013.2 |
| 20260904142205 | 46 | 203 | 3.0 | 5.0 | 0.00 | 0.00 | 0.00 | 87 | 1013.2 |
| 20260904141225 | 46 | 174 | 4.0 | 6.0 | 0.00 | 0.00 | 0.00 | 89 | 1013.0 |
| 20260904140205 | 45 | 179 | 3.0 | 6.0 | 0.00 | 0.00 | 0.00 | 89 | 1012.9 |
| 20260904135206 | 43 | 200 | 1.0 | 3.0 | 0.00 | 0.00 | 0.00 | 91 | 1012.9 |
| 20260904134226 | 44 | 0.0 | 1.0 | 0.00 | 0.00 | 0.00 | 90 | 1012.7 | |
| 20260904133205 | 44 | 201 | 1.0 | 3.0 | 0.00 | 0.00 | 0.00 | 89 | 1012.7 |
| 20260904132205 | 45 | 0.0 | 1.0 | 0.00 | 0.00 | 0.00 | 88 | 1012.7 | |
| 20260904131206 | 45 | 208 | 2.0 | 3.0 | 0.00 | 0.00 | 0.00 | 88 | 1012.6 |
| 20260904130205 | 45 | 222 | 2.0 | 5.0 | 0.00 | 0.00 | 0.00 | 88 | 1012.4 |
| 20260904125205 | 46 | 202 | 4.0 | 6.0 | 0.00 | 0.00 | 0.00 | 87 | 1012.4 |
| 20260904124206 | 46 | 194 | 5.0 | 8.0 | 0.00 | 0.00 | 0.00 | 86 | 1012.3 |
| 20260904123206 | 46 | 149 | 5.0 | 8.0 | 0.00 | 0.00 | 0.00 | 86 | 1012.3 |
| 20260904122206 | 46 | 181 | 3.0 | 7.0 | 0.00 | 0.00 | 0.00 | 87 | 1012.2 |
| 20260904121205 | 45 | 199 | 2.0 | 4.0 | 0.00 | 0.00 | 0.00 | 90 | 1012.3 |
| 20260904120225 | 45 | 185 | 1.0 | 3.0 | 0.00 | 0.00 | 0.00 | 90 | 1012.3 |
| 20260904115205 | 45 | 191 | 2.0 | 4.0 | 0.00 | 0.00 | 0.00 | 90 | 1012.2 |
| 20260904114205 | 46 | 196 | 2.0 | 3.0 | 0.00 | 0.00 | 0.00 | 90 | 1012.1 |
| 20260904113225 | 46 | 203 | 2.0 | 3.0 | 0.00 | 0.00 | 0.00 | 87 | 1011.9 |
| 20260904112206 | 48 | 160 | 3.0 | 5.0 | 0.00 | 0.00 | 0.00 | 84 | 1011.9 |
| 20260904111205 | 48 | 209 | 2.0 | 3.0 | 0.00 | 0.00 | 0.00 | 82 | 1011.7 |
| 20260904110226 | 48 | 147 | 2.0 | 5.0 | 0.00 | 0.00 | 0.00 | 83 | 1011.8 |
| 20260904105205 | 48 | 170 | 4.0 | 6.0 | 0.00 | 0.00 | 0.00 | 84 | 1011.8 |
| 20260904104205 | 48 | 191 | 3.0 | 6.0 | 0.00 | 0.00 | 0.00 | 86 | 1011.8 |
| 20260904103205 | 47 | 181 | 3.0 | 6.0 | 0.00 | 0.00 | 0.00 | 88 | 1011.7 |
| 20260904102206 | 48 | 198 | 3.0 | 7.0 | 0.00 | 0.00 | 0.00 | 86 | 1011.5 |
| 20260904101206 | 47 | 186 | 1.0 | 3.0 | 0.00 | 0.00 | 0.00 | 88 | 1011.5 |
| 20260904100206 | 46 | 154 | 1.0 | 3.0 | 0.00 | 0.00 | 0.00 | 93 | 1011.4 |
| 20260904095206 | 46 | 0.0 | 0.0 | 0.00 | 0.00 | 0.00 | 95 | 1011.6 | |
| 20260904094206 | 45 | 0.0 | 0.0 | 0.00 | 0.00 | 0.00 | 95 | 1011.6 | |
| 20260904093206 | 45 | 0.0 | 0.0 | 0.00 | 0.00 | 0.00 | 95 | 1011.7 | |
| 20260904092206 | 46 | 0.0 | 0.0 | 0.00 | 0.00 | 0.00 | 95 | 1011.6 | |
| 20260904091206 | 46 | 0.0 | 0.0 | 0.00 | 0.00 | 0.00 | 94 | 1011.7 | |
| 20260904090206 | 46 | 157 | 1.0 | 2.0 | 0.00 | 0.00 | 0.00 | 94 | 1011.6 |
| 20260904085205 | 46 | 0.0 | 0.0 | 0.00 | 0.00 | 0.00 | 94 | 1011.5 | |
| 20260904084226 | 47 | 0.0 | 0.0 | 0.00 | 0.00 | 0.00 | 93 | 1011.4 | |
| 20260904083226 | 47 | 0.0 | 0.0 | 0.00 | 0.00 | 0.00 | 92 | 1011.4 | |
| 20260904082205 | 47 | 0.0 | 0.0 | 0.00 | 0.00 | 0.00 | 91 | 1011.3 | |
| 20260904081226 | 47 | 0.0 | 0.0 | 0.00 | 0.00 | 0.00 | 93 | 1011.3 | |
| 20260904080206 | 48 | 0.0 | 0.0 | 0.00 | 0.00 | 0.00 | 92 | 1011.3 | |
| 20260904075206 | 48 | 0.0 | 0.0 | 0.00 | 0.00 | 0.00 | 92 | 1011.2 | |
| 20260904074206 | 48 | 0.0 | 0.0 | 0.00 | 0.00 | 0.00 | 90 | 1011.0 | |
| 20260904073225 | 48 | 0.0 | 0.0 | 0.00 | 0.00 | 0.00 | 88 | 1011.0 | |
| 20260904072206 | 48 | 0.0 | 0.0 | 0.00 | 0.00 | 0.00 | 89 | 1011.0 | |
| 20260904071226 | 48 | 0.0 | 0.0 | 0.00 | 0.00 | 0.00 | 88 | 1011.1 | |
| 20260904070228 | 48 | 0.0 | 0.0 | 0.00 | 0.00 | 0.00 | 90 | 1011.1 | |
| 20260904065206 | 47 | 0.0 | 0.0 | 0.00 | 0.00 | 0.00 | 89 | 1011.1 | |
| 20260904064226 | 47 | 0.0 | 0.0 | 0.00 | 0.00 | 0.00 | 89 | 1011.1 | |
| 20260904063206 | 48 | 0.0 | 0.0 | 0.00 | 0.00 | 0.00 | 88 | 1011.0 | |
| 20260904062206 | 48 | 0.0 | 0.0 | 0.00 | 0.00 | 0.00 | 87 | 1011.0 | |
| 20260904061206 | 49 | 209 | 0.0 | 2.0 | 0.00 | 0.00 | 0.00 | 85 | 1010.9 |
| 20260904060206 | 49 | 0.0 | 0.0 | 0.00 | 0.00 | 0.00 | 87 | 1010.8 | |
| 20260904055226 | 49 | 0.0 | 0.0 | 0.00 | 0.00 | 0.00 | 84 | 1010.9 | |
| 20260904054206 | 49 | 0.0 | 0.0 | 0.00 | 0.00 | 0.00 | 83 | 1011.0 | |
| 20260904053206 | 49 | 0.0 | 0.0 | 0.00 | 0.00 | 0.00 | 82 | 1011.1 | |
| 20260904052206 | 51 | 0.0 | 0.0 | 0.00 | 0.00 | 0.00 | 77 | 1011.0 | |
| 20260904051206 | 52 | 0.0 | 0.0 | 0.00 | 0.00 | 0.00 | 74 | 1011.0 | |
| 20260904050206 | 53 | 4 | 1.0 | 6.0 | 0.00 | 0.01 | 0.00 | 72 | 1011.0 |
| 20260904045226 | 53 | 4 | 2.0 | 5.0 | 0.00 | 0.01 | 0.00 | 72 | 1010.9 |
| 20260904044206 | 53 | 2 | 4.0 | 8.0 | 0.00 | 0.01 | 0.00 | 72 | 1010.9 |